This is the latest recevied weather packets stored in our database for station/object W3BRL. If no packets are shown the sender has not sent any weather packets the latest 10 day(s).
| Time | Temp. | Humidity | Pressure | Rain* | Wind** | Luminosity | Snow |
|---|---|---|---|---|---|---|---|
| 1777591832 | 6.67° C | 82% | 1011.7 hPa | 0 mm | - | 26 W/m² | - |
| 1777591528 | 6.67° C | 81% | 1011.7 hPa | 0 mm | - | 15 W/m² | - |
| 1777591225 | 6.67° C | 80% | 1011.8 hPa | 0 mm | - | 16 W/m² | - |
| 1777590920 | 7.22° C | 78% | 1011.9 hPa | 0 mm | - | 14 W/m² | - |
| 1777590616 | 7.78° C | 74% | 1011.8 hPa | 0 mm | - | 9 W/m² | - |
| 1777590312 | 8.33° C | 71% | 1011.7 hPa | 0 mm | - | 14 W/m² | - |
| 1777590010 | 8.33° C | 68% | 1011.2 hPa | 0 mm | - | 13 W/m² | - |
| 1777589705 | 8.89° C | 66% | 1011.6 hPa | 0 mm | - | 15 W/m² | - |
| 1777589404 | 8.89° C | 66% | 1011.5 hPa | 0 mm | - | 24 W/m² | - |
| 1777589100 | 8.89° C | 66% | 1011.6 hPa | 0 mm | - | 33 W/m² | - |
| 1777588796 | 8.89° C | 65% | 1011.4 hPa | 0 mm | - | 46 W/m² | - |
| 1777588492 | 8.89° C | 66% | 1011.7 hPa | 0 mm | - | 43 W/m² | - |
| 1777588187 | 8.89° C | 66% | 1011.7 hPa | 0 mm | - | 51 W/m² | - |
| 1777587883 | 8.89° C | 65% | 1011.5 hPa | 0 mm | - | 43 W/m² | - |
| 1777587579 | 8.89° C | 64% | 1011.6 hPa | 0 mm | - | 44 W/m² | - |
| 1777587279 | 9.44° C | 62% | 1011.1 hPa | 0 mm | - | 48 W/m² | - |
| 1777586975 | 9.44° C | 62% | 1011.3 hPa | 0 mm | - | 53 W/m² | - |
| 1777586671 | 9.44° C | 61% | 1011.1 hPa | 0 mm | - | 53 W/m² | - |
| 1777586366 | 9.44° C | 59% | 1011.3 hPa | 0 mm | - | 78 W/m² | - |
| 1777586066 | 10° C | 59% | 1011.3 hPa | 0 mm | - | 100 W/m² | - |
| 1777585765 | 10° C | 58% | 1011.1 hPa | 0 mm | - | 137 W/m² | - |
| 1777585459 | 10° C | 57% | 1011.1 hPa | 0 mm | - | 360 W/m² | - |
| 1777585155 | 10.56° C | 57% | 1011.1 hPa | 0 mm | - | 366 W/m² | - |
| 1777584851 | 10.56° C | 56% | 1011 hPa | 0 mm | - | 389 W/m² | - |
| 1777584549 | 10° C | 58% | 1010.9 hPa | 0 mm | - | 456 W/m² | - |
* Rain latest hour (hover to see other rain measurements)
** Current wind speed in m/s (hover to see current wind gust speed)